Regional Weather Roundup
Issued by NWS

Home | Current Version | Previous Version | Graphics & Text | Print | Product List | Glossary Off
Versions: 1 2 3 4 5 6 7 8 9 10 11 12 13 14 15 16 17 18 19 20 21 22 23 24 25 26 27 28 29 30 31 32 33 34 35 36 37 38 39 40 41 42 43 44 45 46 47 48 49 50

000
ASUS43 KMKX 250021
RWRWI

WISCONSIN REGIONAL WEATHER ROUNDUP
NATIONAL WEATHER SERVICE MILWAUKEE/SULLIVAN WI
600 PM CST WED DEC 24 2014

NOTE: "FAIR" INDICATES FEW OR NO CLOUDS BELOW 12,000 FEET WITH NO
SIGNIFICANT WEATHER AND/OR OBSTRUCTIONS TO VISIBILITY.

WIZ001-002-006>008-014>016-023>028-250100-
NORTHWEST WISCONSIN

CITY           SKY/WX    TMP DP  RH WIND       PRES   REMARKS
SUPERIOR ARPT  CLOUDY    33  31  92 W3        29.57F
6HR MIN TEMP:  33; 6HR MAX TEMP:  36;

ASHLAND        CLOUDY    32  32 100 CALM      29.56F
6HR MIN TEMP:  32; 6HR MAX TEMP:  34; 6HR PCP:  0.01;

HAYWARD        CLOUDY    33  28  81 CALM      29.56F
6HR MIN TEMP:  33; 6HR MAX TEMP:  35; 6HR PCP: TRACE;

SIREN          CLOUDY    33  31  93 CALM      29.58F
6HR MIN TEMP:  33; 6HR MAX TEMP:  35;

CUMBERLAND     CLOUDY    32  30  93 W7        29.57S WCI  26
RICE LAKE      CLOUDY    33  30  88 CALM      29.59S
6HR MIN TEMP:  33; 6HR MAX TEMP:  35;

CHETEK         CLOUDY    33  31  90 CALM      29.58S
6HR MIN TEMP:  33; 6HR MAX TEMP:  34;

LADYSMITH      CLOUDY    33  31  92 NW8       29.58R WCI  26
6HR MIN TEMP:  33; 6HR MAX TEMP:  35;

EAU CLAIRE     CLOUDY    35  29  78 W7        29.58S WCI  29
6HR MIN TEMP:  34; 6HR MAX TEMP:  36;

MENOMONIE      CLOUDY    35  30  82 W8        29.59F WCI  28
6HR MIN TEMP:  35; 6HR MAX TEMP:  37;

NEW RICHMOND   CLOUDY    33  32  95 W5        29.60F WCI  29
6HR MIN TEMP:  33; 6HR MAX TEMP:  36;

OSCEOLA        CLOUDY    34  33  96 W5        29.62F WCI  30
6HR MIN TEMP:  34; 6HR MAX TEMP:  36;

$$

WIZ003>005-009-010-017-018-250100-
NORTH CENTRAL WISCONSIN

CITY           SKY/WX    TMP DP  RH WIND       PRES   REMARKS
MANITOWISH WTR CLOUDY    29  29 100 NW5       29.51R WCI  24
6HR MIN TEMP:  29; 6HR MAX TEMP:  31;

ARBOR VITAE    CLOUDY    32  30  92 NW7       29.50S WCI  25
6HR MIN TEMP:  32; 6HR MAX TEMP:  32;

WOODRUFF       CLOUDY    32  30  92 NW7       29.50S WCI  25
6HR MIN TEMP:  32; 6HR MAX TEMP:  32;

RHINELANDER    CLOUDY    30  27  88 NW8       29.49S WCI  22
6HR MIN TEMP:  30; 6HR MAX TEMP:  31; 6HR PCP: TRACE;

EAGLE RIVER    CLOUDY    29  28  96 NW7       29.48S WCI  22
6HR MIN TEMP:  29; 6HR MAX TEMP:  31; 6HR PCP:  0.02;

LAND O LAKES   CLOUDY    30  28  94 NW6       29.49S WCI  24
6HR MIN TEMP:  30; 6HR MAX TEMP:  32;

PHILLIPS       CLOUDY    31  29  94 NW5       29.52S WCI  26
6HR MIN TEMP:  31; 6HR MAX TEMP:  32;

TOMAHAWK       CLOUDY    31  28  91 CALM      29.50F
6HR MIN TEMP:  31; 6HR MAX TEMP:  32;

MEDFORD        CLOUDY    31  29  90 NW8       29.52F WCI  24
6HR MIN TEMP:  31; 6HR MAX TEMP:  32;

MERRILL        CLOUDY    32  30  92 NW6       29.51S WCI  26
6HR MIN TEMP:  32; 6HR MAX TEMP:  33;

$$

WIZ029-030-035-036-043>047-250100-
CENTRAL WISCONSIN

CITY           SKY/WX    TMP DP  RH WIND       PRES   REMARKS
WAUSAU         CLOUDY    32  29  88 NW7       29.50R WCI  26
6HR MIN TEMP:  32; 6HR MAX TEMP:  34;

MOSINEE        CLOUDY    32  32 100 NW8       29.52R WCI  25
MARSHFIELD     FLURRIES  34  30  85 NW12      29.53S WCI  25
6HR MIN TEMP:  34; 6HR MAX TEMP:  35; 6HR PCP: TRACE;

STEVENS POINT  CLOUDY    32  29  89 NW5       29.52R WCI  27
6HR MIN TEMP:  31; 6HR MAX TEMP:  32;

WAUPACA        CLOUDY    35  35  96 NW5       29.51S WCI  31
6HR MIN TEMP:  35; 6HR MAX TEMP:  36;

WAUTOMA        CLOUDY    34  34 100 NW6       29.53R WCI  29
6HR MIN TEMP:  34; 6HR MAX TEMP:  35;

WISC RAPIDS    CLOUDY    33  29  85 NW8       29.54R WCI  26
6HR MIN TEMP:  33; 6HR MAX TEMP:  35;

CAMP DOUGLAS   CLOUDY    34  34 100 W9        29.56R WCI  26
6HR MIN TEMP:  33; 6HR MAX TEMP:  35;

$$

WIZ011>013-019>022-031-037>040-048>050-250100-
NORTHEAST WISCONSIN

CITY           SKY/WX    TMP DP  RH WIND       PRES   REMARKS
ANTIGO         CLOUDY    30  28  92 NW9       29.47F WCI  22
6HR MIN TEMP:  30; 6HR MAX TEMP:  32;

SHAWANO        CLOUDY    35  34  96 CALM      29.49F
6HR MIN TEMP:  35; 6HR MAX TEMP:  36;

OCONTO         CLOUDY    33  33 100 NW3       29.48S
6HR MIN TEMP:  33; 6HR MAX TEMP:  35;

STURGEON BAY   CLOUDY    34  30  86 N9        29.48S WCI  26
6HR MIN TEMP:  34; 6HR MAX TEMP:  36;

GREEN BAY      LGT SNOW  33  32  96 MISG      29.49S FOG
6HR MIN TEMP:  33; 6HR MAX TEMP:  35; 6HR PCP:  0.04;

MANITOWOC      CLOUDY    35  35 100 NW9       29.47S FOG     WCI  28
6HR MIN TEMP:  35; 6HR MAX TEMP:  39;

APPLETON       LGT RAIN  34  34 100 NW9       29.49S FOG     WCI  26
CLINTONVILLE   CLOUDY    34  32  93 NW6       29.49F WCI  29
OSHKOSH        CLOUDY    34  32  92 NW9       29.50R WCI  27
6HR MIN TEMP:  33; 6HR MAX TEMP:  35; 6HR PCP:  0.01;

$$

WIZ032>034-041-042-053>061-250100-
SOUTHWEST WISCONSIN

CITY           SKY/WX    TMP DP  RH WIND       PRES   REMARKS
LA CROSSE      CLOUDY    37  31  78 NW9       29.60S WCI  30
6HR MIN TEMP:  36; 6HR MAX TEMP:  38;

SPARTA         CLOUDY    35  31  88 W8        29.59S WCI  28
6HR MIN TEMP:  34; 6HR MAX TEMP:  35;

VIROQUA        CLOUDY    33  33 100 NW8       29.57S WCI  26
6HR MIN TEMP:  33; 6HR MAX TEMP:  33;

BOSCOBEL       CLOUDY    37  31  78 CALM      29.60S
6HR MIN TEMP:  37; 6HR MAX TEMP:  37;

PRAIRIE DU CHI CLOUDY    36  31  82 W9        29.61S WCI  29
6HR MIN TEMP:  36; 6HR MAX TEMP:  37;

PLATTEVILLE    CLOUDY    35  32  90 W10       29.58R WCI  27
6HR MIN TEMP:  34; 6HR MAX TEMP:  35;

$$

WIZ056-057-062-063-064-067-068-250100-
SOUTH CENTRAL WISCONSIN

CITY           SKY/WX    TMP DP  RH WIND       PRES   REMARKS
REEDSBURG      CLOUDY    33  32  96 NW8       29.55R WCI  26
6HR MIN TEMP:  33; 6HR MAX TEMP:  34;

BARABOO/DELLS  CLOUDY    32  32  99 NW9       29.54R WCI  25
6HR MIN TEMP:  32; 6HR MAX TEMP:  33;

LONE ROCK      CLOUDY    39  31  72 W14       29.57S WCI  31
6HR MIN TEMP:  39; 6HR MAX TEMP:  39;

MINERAL POINT  CLOUDY    36  32  87 NW12G17   29.55S WCI  27
MADISON        CLOUDY    35  32  88 NW7       29.53S WCI  29
6HR MIN TEMP:  35; 6HR MAX TEMP:  36; 6HR PCP: TRACE;

MIDDLETON      CLOUDY    36  35  98 NW9       29.54R WCI  29
6HR MIN TEMP:  35; 6HR MAX TEMP:  37;

WATERTOWN      CLOUDY    34  34 100 NW8       29.51R WCI  27
6HR MIN TEMP:  34; 6HR MAX TEMP:  35;

MONROE         CLOUDY    34  32  93 NW10      29.54R WCI  26
JANESVILLE     DRIZZLE   36  34  93 W9        29.53R WCI  29
$$

WIZ051-052-058>065-066-070>072-250100-
SOUTHEAST WISCONSIN

CITY           SKY/WX    TMP DP  RH WIND       PRES   REMARKS
MILWAUKEE      CLOUDY    37  33  85 W12       29.49S WCI  29
6HR MIN TEMP:  37; 6HR MAX TEMP:  41;

WAUKESHA       DRIZZLE   34  34 100 NW12      29.50R WCI  25
MILWAUKEE/TIMM CLOUDY    37  34  87 W7        29.50R WCI  32
RACINE         CLOUDY    37  33  85 W13G18    29.51R WCI  29
6HR MIN TEMP:  38; 6HR MAX TEMP:  40;

BURLINGTON     CLOUDY    34  33  95 NW10      29.51R WCI  26
6HR MIN TEMP:  34; 6HR MAX TEMP:  36;

KENOSHA        CLOUDY    37  34  89 W12       29.50R WCI  29
6HR MIN TEMP:  37; 6HR MAX TEMP:  39;

FOND DU LAC    MIX PCPN  34  32  92 NW10      29.50R WCI  26
6HR MIN TEMP:  34; 6HR MAX TEMP:  36; 6HR PCP:  0.01;

SHEBOYGAN      CLOUDY    35  33  92 NW9       29.47S FOG     WCI  28
6HR MIN TEMP:  35; 6HR MAX TEMP:  39; 6HR PCP: TRACE;

WEST BEND      CLOUDY    34  32  93 W9        29.48S WCI  26
JUNEAU         DRIZZLE   33  33  98 W6        29.52R WCI  28
6HR MIN TEMP:  33; 6HR MAX TEMP:  35;

$$

LSZ147-162-250100-
LAKE SUPERIOR

STATION/POSITION TIME  TEMP    WIND        PRES    WAVE
                       AIR SEA DIR/SP/G            HT/PER
                 (UTC) (F)     (DEG/KT/KT) (MB)    (FT/S)
DEVILS ISLAND    0000   33     230/  7/  9 1001.4F
PORT WING        2340   34     210/  3/  5 1001.7F
SAXON HARBOR     2300   33     280/  3/  6 1001.7F
$$

LMZ867-665-643>646-250100-
LAKE MICHIGAN

STATION/POSITION TIME  TEMP    WIND        PRES    WAVE



USA.gov is the U.S. government's official web portal to all federal, state and local government web resources and services.